• In Romania
  • List of Countries
  • For 7 days
  • Water Temperature
  • Satellite Maps
  • Weather Map
  • Weather Widgets
  • user-avatar
    Login

    Hourly Weather Prutz

    Today, 21 July, Friday

    Time Temperature Precipitation Wind Pressure Humidity
    00:00 +13°C° 0.4 mm 1 mps 635 mmHg 91%
    01:00 +13°C° 0.4 mm 1 mps 635 mmHg 90%
    02:00 +12°C° 0.1 mm 1 mps 635 mmHg 89%
    03:00 +12°C° 0.1 mm 1 mps 635 mmHg 88%
    04:00 +12°C° 0.1 mm 1 mps 634 mmHg 87%
    05:00 +13°C° 0 mm 1 mps 635 mmHg 84%
    06:00 +14°C° 0 mm 1 mps 635 mmHg 81%
    07:00 +15°C° 0 mm 1 mps 635 mmHg 78%
    08:00 +18°C° 0 mm 1 mps 636 mmHg 69%
    09:00 +20°C° 0 mm 1 mps 636 mmHg 61%
    10:00 +21°C° 0 mm 2 mps 637 mmHg 52%
    11:00 +21°C° 0.4 mm 2 mps 637 mmHg 51%
    12:00 +23°C° 0.4 mm 2 mps 637 mmHg 50%
    13:00 +24°C° 0.4 mm 2 mps 637 mmHg 49%
    14:00 +23°C° 1 mm 2 mps 637 mmHg 53%
    15:00 +23°C° 1 mm 2 mps 636 mmHg 57%
    16:00 +21°C° 1 mm 2 mps 636 mmHg 61%
    17:00 +20°C° 1.6 mm 2 mps 635 mmHg 68%
    18:00 +19°C° 1.6 mm 1 mps 635 mmHg 75%
    19:00 +18°C° 1.6 mm 1 mps 635 mmHg 82%
    20:00 +16°C° 1.1 mm 1 mps 635 mmHg 84%
    21:00 +15°C° 1.1 mm 1 mps 635 mmHg 86%
    22:00 +14°C° 1.1 mm 2 mps 635 mmHg 87%
    23:00 +14°C° 0.5 mm 2 mps 635 mmHg 88%

    Tomorrow, 22 July, Saturday

    Time Temperature Precipitation Wind Pressure Humidity
    00:00 +14°C° 0.5 mm 2 mps 635 mmHg 89%
    01:00 +13°C° 0.5 mm 2 mps 635 mmHg 90%
    02:00 +13°C° 0.5 mm 2 mps 635 mmHg 90%
    03:00 +13°C° 0.5 mm 1 mps 635 mmHg 90%
    04:00 +13°C° 0.5 mm 1 mps 635 mmHg 90%
    05:00 +14°C° 0.1 mm 1 mps 635 mmHg 86%
    06:00 +15°C° 0.1 mm 1 mps 635 mmHg 82%
    07:00 +15°C° 0.1 mm 0 mps 636 mmHg 78%
    08:00 +19°C° 0 mm 1 mps 637 mmHg 70%
    09:00 +21°C° 0 mm 1 mps 637 mmHg 61%
    10:00 +23°C° 0 mm 1 mps 638 mmHg 52%
    11:00 +23°C° 0.1 mm 1 mps 638 mmHg 51%
    12:00 +23°C° 0.1 mm 1 mps 638 mmHg 49%
    13:00 +24°C° 0.1 mm 1 mps 638 mmHg 47%
    14:00 +23°C° 0.7 mm 1 mps 637 mmHg 53%
    15:00 +23°C° 0.7 mm 1 mps 637 mmHg 58%
    16:00 +22°C° 0.7 mm 1 mps 637 mmHg 64%
    17:00 +21°C° 1.3 mm 1 mps 637 mmHg 71%
    18:00 +20°C° 1.3 mm 1 mps 636 mmHg 78%
    19:00 +18°C° 1.3 mm 1 mps 636 mmHg 85%
    20:00 +16°C° 1.5 mm 1 mps 636 mmHg 88%
    21:00 +15°C° 1.5 mm 1 mps 636 mmHg 91%
    22:00 +14°C° 1.5 mm 1 mps 636 mmHg 94%
    23:00 +14°C° 1.2 mm 1 mps 636 mmHg 94%

    Day after tomorrow, 23 July, Sunday

    Time Temperature Precipitation Wind Pressure Humidity
    00:00 +14°C° 1.2 mm 1 mps 636 mmHg 95%
    01:00 +14°C° 1.2 mm 1 mps 636 mmHg 95%
    02:00 +14°C° 0.2 mm 1 mps 636 mmHg 94%
    03:00 +13°C° 0.2 mm 1 mps 636 mmHg 94%
    04:00 +13°C° 0.2 mm 1 mps 635 mmHg 93%
    05:00 +14°C° 0 mm 1 mps 636 mmHg 89%
    06:00 +15°C° 0 mm 1 mps 636 mmHg 86%
    07:00 +15°C° 0 mm 0 mps 637 mmHg 82%
    08:00 +18°C° 0.1 mm 1 mps 637 mmHg 75%
    09:00 +20°C° 0.1 mm 1 mps 638 mmHg 67%
    10:00 +21°C° 0.1 mm 1 mps 638 mmHg 60%
    11:00 +21°C° 0.4 mm 1 mps 638 mmHg 61%
    12:00 +21°C° 0.4 mm 1 mps 638 mmHg 63%
    13:00 +21°C° 0.4 mm 2 mps 638 mmHg 64%
    14:00 +20°C° 0.8 mm 2 mps 638 mmHg 69%
    15:00 +19°C° 0.8 mm 2 mps 637 mmHg 74%
    16:00 +19°C° 0.8 mm 2 mps 637 mmHg 79%
    17:00 +18°C° 1.5 mm 2 mps 637 mmHg 83%
    18:00 +18°C° 1.5 mm 1 mps 636 mmHg 88%
    19:00 +16°C° 1.5 mm 1 mps 636 mmHg 92%
    20:00 +15°C° 1.5 mm 1 mps 636 mmHg 94%
    21:00 +15°C° 1.5 mm 1 mps 636 mmHg 95%
    22:00 +14°C° 1.5 mm 1 mps 636 mmHg 97%
    23:00 +14°C° 1 mm 1 mps 635 mmHg 97%

    24 July, Monday

    Time Temperature Precipitation Wind Pressure Humidity
    00:00 +13°C° 1 mm 1 mps 635 mmHg 97%
    01:00 +13°C° 1 mm 1 mps 635 mmHg 97%
    02:00 +13°C° 0.7 mm 1 mps 634 mmHg 97%
    03:00 +13°C° 0.7 mm 1 mps 634 mmHg 97%
    04:00 +12°C° 0.7 mm 1 mps 633 mmHg 97%
    05:00 +13°C° 0.3 mm 1 mps 633 mmHg 96%
    06:00 +13°C° 0.3 mm 1 mps 633 mmHg 94%
    07:00 +14°C° 0.3 mm 1 mps 633 mmHg 92%
    08:00 +15°C° 0.6 mm 1 mps 633 mmHg 88%
    09:00 +15°C° 0.6 mm 1 mps 633 mmHg 84%
    10:00 +16°C° 0.6 mm 1 mps 633 mmHg 80%
    11:00 +15°C° 2.3 mm 1 mps 633 mmHg 83%
    12:00 +15°C° 2.3 mm 1 mps 632 mmHg 86%
    13:00 +14°C° 2.3 mm 2 mps 632 mmHg 89%
    14:00 +13°C° 3.1 mm 2 mps 632 mmHg 91%
    15:00 +13°C° 3.1 mm 2 mps 631 mmHg 93%
    16:00 +12°C° 3.1 mm 2 mps 631 mmHg 95%
    17:00 +12°C° 0.7 mm 2 mps 631 mmHg 94%
    18:00 +12°C° 0.7 mm 2 mps 632 mmHg 94%
    19:00 +10°C° 0.7 mm 2 mps 632 mmHg 94%
    20:00 +10°C° 0.1 mm 2 mps 632 mmHg 95%
    21:00 +9°C° 0.1 mm 2 mps 632 mmHg 95%
    22:00 +9°C° 0.1 mm 2 mps 632 mmHg 96%
    23:00 +8°C° 0 mm 2 mps 632 mmHg 96%

    25 July, Tuesday

    Time Temperature Precipitation Wind Pressure Humidity
    00:00 +8°C° 0 mm 2 mps 632 mmHg 96%
    01:00 +8°C° 0 mm 2 mps 631 mmHg 96%
    02:00 +8°C° 0.1 mm 2 mps 631 mmHg 96%
    03:00 +7°C° 0.1 mm 2 mps 631 mmHg 95%
    04:00 +7°C° 0.1 mm 2 mps 631 mmHg 95%
    05:00 +8°C° 0.2 mm 2 mps 631 mmHg 94%
    06:00 +8°C° 0.2 mm 2 mps 631 mmHg 92%
    07:00 +9°C° 0.2 mm 2 mps 632 mmHg 91%
    08:00 +10°C° 0.2 mm 2 mps 632 mmHg 87%
    09:00 +12°C° 0.2 mm 2 mps 632 mmHg 83%
    10:00 +13°C° 0.2 mm 2 mps 632 mmHg 79%
    11:00 +13°C° 0.3 mm 2 mps 633 mmHg 75%
    12:00 +14°C° 0.3 mm 2 mps 633 mmHg 70%
    13:00 +14°C° 0.3 mm 3 mps 633 mmHg 66%
    14:00 +14°C° 0.3 mm 3 mps 633 mmHg 66%
    15:00 +14°C° 0.3 mm 3 mps 633 mmHg 66%
    16:00 +14°C° 0.3 mm 3 mps 633 mmHg 67%
    17:00 +13°C° 0.2 mm 3 mps 633 mmHg 71%
    18:00 +13°C° 0.2 mm 2 mps 633 mmHg 76%
    19:00 +12°C° 0.2 mm 2 mps 633 mmHg 81%
    20:00 +9°C° 0 mm 2 mps 633 mmHg 85%
    21:00 +8°C° 0.1 mm 2 mps 633 mmHg 90%
    22:00 +8°C° 0.1 mm 1 mps 633 mmHg 94%
    23:00 +7°C° 0 mm 1 mps 633 mmHg 94%

    26 July, Wednesday

    Time Temperature Precipitation Wind Pressure Humidity
    00:00 +7°C° 0 mm 1 mps 633 mmHg 95%
    01:00 +7°C° 0 mm 1 mps 633 mmHg 95%
    02:00 +6°C° 0 mm 1 mps 633 mmHg 95%
    03:00 +6°C° 0 mm 1 mps 633 mmHg 94%
    04:00 +6°C° 0 mm 1 mps 633 mmHg 94%
    05:00 +7°C° 0 mm 1 mps 633 mmHg 87%
    06:00 +9°C° 0 mm 1 mps 634 mmHg 81%
    07:00 +9°C° 0 mm 0 mps 634 mmHg 75%
    08:00 +13°C° 0 mm 1 mps 635 mmHg 64%
    09:00 +15°C° 0 mm 1 mps 636 mmHg 53%
    10:00 +18°C° 0 mm 1 mps 636 mmHg 42%
    11:00 +19°C° 0 mm 1 mps 637 mmHg 40%
    12:00 +20°C° 0 mm 1 mps 637 mmHg 37%
    13:00 +21°C° 0 mm 1 mps 637 mmHg 35%
    14:00 +20°C° 0 mm 2 mps 636 mmHg 36%
    15:00 +20°C° 0 mm 2 mps 636 mmHg 38%
    16:00 +20°C° 0 mm 2 mps 636 mmHg 40%
    17:00 +18°C° 0 mm 2 mps 636 mmHg 49%
    18:00 +17°C° 0 mm 2 mps 635 mmHg 59%
    19:00 +15°C° 0 mm 1 mps 635 mmHg 69%
    20:00 +14°C° 0 mm 1 mps 635 mmHg 74%
    21:00 +12°C° 0 mm 1 mps 635 mmHg 80%
    22:00 +11°C° 0 mm 1 mps 634 mmHg 86%
    23:00 +11°C° 0 mm 1 mps 634 mmHg 84%
    Show more